Home > Time Zones > World Clock > Weather > Italy > Parma > Past weeks

Flag for Italy Weather past 2 weeks in Parma, Italy

Now
82 °F

Passing clouds.


Feels Like: 83 °F
Forecast: 62 / 89 °F
Wind: 6 mph from Northeast

Location: Parma

Current Time: Jul 31, 2014 at 3:46:08 PM

Latest Report: Jul 31, 2014 at 2:50 PM


Visibility: N/A

Pressure: 29.83 "Hg

Humidity: 48%

Dew point: 61 °F

Location of ParmaLocation

Historic Weather in Parma — Graph

°F

Parma temperature yesterday

Maximum temperature yesterday: 73 °F (at 3:50 PM)
Minimum temperature yesterday: 61 °F (at 6:00 AM)
Average temperature yesterday: 67 °F

Past Weeks' High & Low Weather Summary

 TemperatureHumidityPressure
High91 °F (Jul 17, 3:50 PM)100% (Jul 21, 9:50 AM)30.12 "Hg (Jul 21, 9:50 AM)
Low61 °F (Jul 25, 6:00 AM)35% (Jul 16, 5:50 PM)29.68 "Hg (Jul 30, 6:00 AM)
Average75 °F70%29.90 "Hg
* Reported Jul 16 1:50 PM — Jul 31 1:50 PM, Parma, Weather by CustomWeather, © 2014

Note: Actual official high and low records may vary slightly from our data, if they occured in-between our weather recording intervals... More about our weather records

Advertising

Parma weather history for previous 24 hours

 ConditionsComfort  
Time TempWeatherWind HumidityBarometerVisibility
1:50 PM
Jul 31
82 °FSunny.3 mph48%29.83 "Hg10 mi
12:50 PM79 °FPassing clouds.7 mph54%29.86 "HgN/A
11:50 AM79 °FSunny.3 mph61%29.86 "Hg10 mi
10:50 AM75 °FSunny.2 mph65%29.83 "Hg10 mi
9:50 AM73 °FPassing clouds.3 mph74%29.83 "HgN/A
8:50 AM70 °FPassing clouds.3 mph78%29.83 "HgN/A
7:50 AM66 °FScattered clouds.2 mph83%29.83 "HgN/A
6:50 AM64 °FPassing clouds.5 mph88%29.83 "HgN/A
6:00 AM64 °FPassing clouds.3 mph88%29.80 "HgN/A
11:50 PM
Jul 30
66 °FClear.6 mph94%29.80 "Hg10 mi
10:50 PM66 °FClear.5 mph88%29.80 "Hg10 mi
9:50 PM66 °FPassing clouds.3 mph88%29.80 "HgN/A
8:50 PM70 °FPassing clouds.3 mph83%29.77 "HgN/A
7:50 PM72 °FScattered clouds.8 mph73%29.77 "HgN/A
6:50 PM73 °FPassing clouds.8 mph74%29.74 "HgN/A
5:50 PM73 °FScattered clouds.8 mph69%29.74 "HgN/A
4:50 PM73 °FPassing clouds.8 mph69%29.77 "HgN/A
3:50 PM73 °FScattered clouds.6 mph65%29.77 "HgN/A
Weather by CustomWeather, © 2014

See weather overviewHow to use our weather pages